Weather History for KFTY - September, 2013

Change the Weather History Date:

Sunday, September 29, 2013

  Actual Average Record
Temperature  
Mean Temperature 65 °F 68 °F  
Max Temperature 76 °F 79 °F - ()
Min Temperature 53 °F 58 °F - ()
Degree Days  
Heating Degree Days 0 1  
Month to date heating degree days 0 8  
Since 1 July heating degree days 0 8  
Cooling Degree Days 0 5  
Month to date cooling degree days 241 240  
Year to date cooling degree days 1562 1677  
Growing Degree Days 14 (Base 50)    
Moisture  
Dew Point 54 °F    
Average Humidity 73    
Maximum Humidity 100    
Minimum Humidity 46    
Precipitation  
Precipitation 0.00 in 0.15 in - ()
Month to date precipitation 2.94 3.84  
Year to date precipitation 39.26  
Sea Level Pressure  
Sea Level Pressure 30.10 in    
Wind  
Wind Speed 3 mph (ENE)    
Max Wind Speed 13 mph    
Max Gust Speed 17 mph    
Visibility 10 miles    
Events      
T = Trace of Precipitation, MM = Missing Value Source: NWS Daily Summary

Daily Weather History Graph

Daily Weather History Graph

Search for Another Location

Airport or City:

Trip Planner

Search our weather history database for the weather conditions in past years. The results will help you decide how hot, cold, wet, or windy it might be!

Date:

Astronomy

Sep. 29, 2013 Rise Set
Actual Time 7:31 AM EDT 7:24 PM EDT
Civil Twilight 7:06 AM EDT 7:49 PM EDT
Nautical Twilight 6:37 AM EDT 8:18 PM EDT
Astronomical Twilight 6:08 AM EDT 8:47 PM EDT
Moon 2:24 AM EDT (9/29) 4:08 PM EDT (9/29)
Length of Visible Light 12h 43m
Length of Day
11h 53m
Waning Crescent, 27% of the Moon is Illuminated
Sep 29
Waning Crescent
Oct 4
New
Oct 11
First Quarter
Oct 18
Full
Oct 26
Last Quarter

Hourly Weather History & Observations

Time (EDT) Temp. Dew Point Humidity Pressure Visibility Wind Dir Wind Speed Gust Speed Precip Events Conditions
12:53 AM 57.0 °F 55.0 °F 93% 30.15 in 10.0 mi Calm Calm - N/A   Clear
1:53 AM 54.0 °F 53.1 °F 97% 30.15 in 10.0 mi Calm Calm - N/A   Clear
2:53 AM 54.0 °F 52.0 °F 93% 30.14 in 10.0 mi Calm Calm - N/A   Clear
3:53 AM 54.0 °F 52.0 °F 93% 30.14 in 9.0 mi Calm Calm - N/A   Clear
4:53 AM 55.0 °F 53.1 °F 93% 30.13 in 10.0 mi Calm Calm - N/A   Mostly Cloudy
5:53 AM 55.0 °F 53.1 °F 93% 30.13 in 10.0 mi NE 4.6 mph - N/A   Mostly Cloudy
6:53 AM 57.0 °F 54.0 °F 89% 30.14 in 10.0 mi NE 3.5 mph - N/A   Mostly Cloudy
7:53 AM 54.0 °F 53.1 °F 97% 30.15 in 10.0 mi Calm Calm - N/A   Partly Cloudy
8:53 AM 60.1 °F 55.0 °F 83% 30.16 in 10.0 mi NNE 4.6 mph - N/A   Clear
9:53 AM 63.0 °F 53.1 °F 70% 30.14 in 10.0 mi ENE 8.1 mph - N/A   Clear
10:53 AM 68.0 °F 52.0 °F 56% 30.15 in 10.0 mi ENE 8.1 mph - N/A   Clear
11:53 AM 71.1 °F 52.0 °F 51% 30.14 in 10.0 mi ENE 6.9 mph - N/A   Clear
12:53 PM 72.0 °F 52.0 °F 49% 30.12 in 10.0 mi East 5.8 mph - N/A   Clear
1:53 PM 73.9 °F 53.1 °F 48% 30.09 in 10.0 mi Variable 4.6 mph - N/A   Partly Cloudy
2:53 PM 73.9 °F 51.1 °F 45% 30.06 in 10.0 mi SE 4.6 mph - N/A   Scattered Clouds
3:53 PM 73.9 °F 52.0 °F 46% 30.04 in 10.0 mi Calm Calm - N/A   Scattered Clouds
4:53 PM 73.0 °F 51.1 °F 46% 30.03 in 10.0 mi East 4.6 mph - N/A   Partly Cloudy
5:53 PM 72.0 °F 55.0 °F 55% 30.03 in 10.0 mi NE 3.5 mph - N/A   Clear
6:53 PM 68.0 °F 57.9 °F 70% 30.04 in 10.0 mi NE 3.5 mph - N/A   Clear
7:53 PM 66.9 °F 57.0 °F 70% 30.05 in 10.0 mi Calm Calm - N/A   Clear
8:53 PM 62.1 °F 57.9 °F 86% 30.06 in 10.0 mi Calm Calm - N/A   Clear
9:53 PM 61.0 °F 57.9 °F 90% 30.06 in 10.0 mi Calm Calm - N/A   Clear
10:53 PM 61.0 °F 57.9 °F 90% 30.05 in 10.0 mi Calm Calm - N/A   Clear
11:53 PM 59.0 °F 57.0 °F 93% 30.04 in 10.0 mi Calm Calm - N/A   Clear